Regional Weather Roundup
Issued by NWS

Home | Current Version | Previous Version | Text Only | Print | Product List | Glossary Off
Versions: 1 2 3 4 5 6 7 8 9 10 11 12 13 14 15 16 17 18 19 20 21 22 23 24 25 26 27 28 29 30 31 32 33 34 35 36 37 38 39 40 41 42 43 44 45 46 47 48 49 50

000
ASUS43 KLSX 222307
RWRMO

WEATHER SUMMARY FOR MISSOURI
NATIONAL WEATHER SERVICE SPRINGFIELD MO
600 PM CDT WED OCT 22 2014

NOTE: "FAIR" INDICATES FEW OR NO CLOUDS BELOW 12,000 FEET WITH NO
       SIGNIFICANT WEATHER AND/OR OBSTRUCTIONS TO VISIBILITY.
       CURRENT SKY AND/OR WEATHER CONDITIONS ARE NOT AVAILABLE FOR
       CHILLICOTHE AND FARMINGTON.

MOZ001>031-035>038-043-044-053-054-230000-
...NORTHERN AND WESTERN MISSOURI...

CITY           SKY/WX    TMP DP  RH WIND       PRES   REMARKS
KANSAS CTY INT PTCLDY    69  57  65 SE12      30.09S
KANSAS C DTWN  CLEAR     72  54  53 SE9G17    30.09S
LEE`S SUMMIT   CLEAR     69  52  54 SE8       30.12S
ST JOSEPH      CLEAR     70  55  59 SE10      30.08S
CHILLICOTHE      N/A     66  47  50 SE6       30.15S
KIRKSVILLE     CLEAR     57  45  64 SE7       30.17S

$$
MOZ066>068-077>081-088>096-101>105-230000-
...SOUTHWEST MISSOURI...

CITY           SKY/WX    TMP DP  RH WIND       PRES   REMARKS
SPRINGFIELD    CLEAR     66  48  52 SE6       30.14S
JOPLIN         PTCLDY    71  56  58 E9        30.12S

$$
MOZ032>034-039>042-045>050-055>058-069>072-230000-
...CENTRAL MISSOURI...

CITY           SKY/WX    TMP DP  RH WIND       PRES   REMARKS
COLUMBIA       CLEAR     62  43  49 SE5       30.17R
JEFFERSON CITY CLEAR     64  41  42 E8        30.16S
ROLLA          CLEAR     60  40  47 E6        30.16F
SEDALIA        CLEAR     66  48  52 SE7       30.16R
WHITEMAN AFB   PTCLDY    65  49  55 SE6       30.13S
OSAGE BEACH    CLEAR     66  43  42 SE3       30.16S

$$
MOZ051-052-059>065-230000-
...EAST CENTRAL MISSOURI...

CITY           SKY/WX    TMP DP  RH WIND       PRES   REMARKS
ST LOUIS INTL  NOT AVBL
SPIRIT OF STL  CLEAR     60  42  51 SE3       30.20F
ST CHARLES     CLEAR     59  42  53 SE7       30.20F

$$
MOZ072>076-082>087-097>100-106>115-230000-
...SOUTH CENTRAL AND SOUTHEAST MISSOURI...

CITY           SKY/WX    TMP DP  RH WIND       PRES   REMARKS
CAPE GIRARDEAU CLEAR     61  41  47 NE5       30.21S
FARMINGTON     CLEAR     59  43  55 NE6       30.23S
POPLAR BLUFF   CLEAR     62  42  47 E3        30.20S
WEST PLAINS    CLEAR     63  43  48 SE7       30.18F

$$



USA.gov is the U.S. government's official web portal to all federal, state and local government web resources and services.